www.pogodaiklimat.ru

Погода и климат >> Архив погоды >> Норвегия >> Ховден


ПОГОДА в Ховдене

  • Прогноз погоды в Ховдене
  • Монитор погоды в Ховдене

АРХИВ ПОГОДЫ в Ховдене

Время (UTC), дата Ветер
(напр.,м/с)
 
Видим.   Явления Облачность Т
(С)
Тd
(С)
f
(%)
Тe
(С)
Тes
(С)
Комфортность P
(гПа)
Po
(гПа)
Тmin
(С)
Tmax
(С)
R
(мм)
R24
(мм)
S
(см)
19 16.09 ЮЗ 3
{8}
н/о н/о +2.1 +0.8 91 -2 -2 999.6 909.6 0.9
20 16.09 З 4
{9}
н/о н/о +2.9 +0.9 87 -2 -2 999.1 909.3 0.1
21 16.09 З 6
{10}
н/о н/о +2.4 -0.5 81 -3 -3 998.7 908.8
22 16.09 З 2
{7}
н/о н/о +1.9 -0.1 87 -1 -1 998.8 908.7 0.3
23 16.09 З 4
{10}
н/о н/о +1.3 -1.5 82 -4 -4 998.5 908.3 0.1
00 17.09 З 5
{11}
н/о н/о +1.1 -2.3 78 -5 -5 998.4 908.1
01 17.09 З 2
{7}
н/о н/о +0.5 -1.3 88 -3 -3 998.0 907.6
02 17.09 ЮВ 1
{7}
н/о н/о -0.1 -0.9 94 -2 -2 997.8 907.2 0.1
03 17.09 З 2
{3}
н/о н/о +0.2 -0.9 92 -4 -4 997.0 906.6 0.1
04 17.09 В 1
{6}
н/о н/о +0.3 -1.4 88 -2 -2 996.6 906.2 0.2
05 17.09 Ю 1
{4}
н/о н/о -0.2 -1.6 90 -2 -2 996.6 906.1
06 17.09 ЮВ 1
{8}
н/о н/о 0.0 -2.0 86 -2 -2 996.5 906.1 -0.6 +3.4 2
07 17.09 З 1
{4}
н/о н/о +0.7 -2.4 80 -1 -1 997.3 907.0
08 17.09 СЗ 3
{7}
н/о н/о +1.7 -2.7 73 -2 -2 998.0 908.0
09 17.09 СЗ 4
{7}
н/о н/о +3.2 -2.2 68 -1 -1 998.3 908.7
10 17.09 З 6
{8}
н/о н/о +3.6 -2.6 64 -2 -2 999.0 909.5
11 17.09 СЗ 5
{9}
н/о н/о +4.5 -2.5 60 0 0 999.6 910.3
12 17.09 СЗ 4
{9}
н/о н/о +5.3 -3.3 54 +2 +2 1000.2 911.2
13 17.09 СЗ 5
{10}
н/о н/о +5.3 -4.6 49 +1 +1 1001.2 912.1
14 17.09 СЗ 6
{11}
н/о н/о +5.4 -3.0 55 +1 +1 1002.3 913.1
15 17.09 СЗ 6
{11}
н/о н/о +5.6 -1.7 59 +1 +1 1003.1 913.8
16 17.09 СЗ 5
{12}
н/о н/о +5.2 -1.5 62 +1 +1 1003.9 914.5
17 17.09 З 3
{10}
н/о н/о +4.6 -1.0 67 +1 +1 1004.9 915.2
18 17.09 ЮЗ 2
{12}
н/о н/о +4.0 -0.3 74 +1 +1 1005.8 915.8 +0.1 +6.5
19 17.09 СЗ 2
{4}
н/о н/о +3.2 -0.1 79 0 0 1006.9 916.6
20 17.09 З 2
{6}
н/о н/о +3.3 +0.1 80 0 0 1007.6 917.2
21 17.09 З 4
{6}
н/о н/о +3.6 -0.3 76 -1 -1 1008.1 917.8
22 17.09 ЮВ 2
{6}
н/о н/о +2.3 -0.6 81 -1 -1 1008.9 918.1
23 17.09 З 2
{5}
н/о н/о +2.4 -1.7 74 -1 -1 1009.0 918.3
00 18.09 ЮЗ 1
{6}
н/о н/о +1.2 -1.7 81 -1 -1 1009.8 918.5
01 18.09 З 1
{4}
н/о н/о +0.6 -2.2 81 -1 -1 1010.1 918.6
02 18.09 СЗ 1
{2}
н/о н/о -2.2 -3.4 91 -5 -5 1011.5 918.9
03 18.09 СЗ 1
{3}
н/о н/о -2.7 -3.8 92 -5 -5 1011.7 919.0
04 18.09 Ю 1
{2}
н/о н/о -3.1 -4.3 91 -5 -5 1012.1 919.2
05 18.09 н/о
06 18.09 СЗ 1
{5}
н/о н/о +0.5 -1.4 87 -1 -1 1011.4 919.8 -3.3 +4.1
07 18.09 СЗ 4
{7}
н/о н/о +3.7 -0.9 72 -1 -1 1010.5 920.0
08 18.09 СЗ 3
{7}
н/о н/о +5.0 -1.1 65 +2 +2 1010.8 920.7
09 18.09 С 3
{6}
н/о н/о +5.4 -2.5 57 +3 +3 1011.0 921.0
10 18.09 СЗ 4
{8}
н/о н/о +6.6 -3.3 49 +4 +4 1010.8 921.2
11 18.09 СЗ 4
{8}
н/о н/о +7.3 -2.4 50 +4 +4 1011.0 921.6
12 18.09 СЗ 5
{10}
н/о н/о +7.2 -2.9 49 +4 +4 1011.7 922.2
13 18.09 СЗ 3
{8}
н/о н/о +6.4 -2.5 53 +4 +4 1012.2 922.5
14 18.09 С 5
{10}
н/о н/о +6.5 -3.2 50 +3 +3 1012.6 922.8
15 18.09 СЗ 6
{11}
н/о н/о +6.8 -3.4 48 +3 +3 1012.7 923.0
16 18.09 СЗ 3
{8}
н/о н/о +5.5 -2.7 55 +3 +3 1013.4 923.2
17 18.09 СЗ 4
{7}
н/о н/о +5.2 -1.8 61 +2 +2 1013.8 923.4
18 18.09 СВ 1
{11}
н/о н/о +3.0 -1.5 72 +2 +2 1015.1 923.9 +0.5 +7.5
19 18.09 н/о
20 18.09 ЮВ 2
{3}
н/о н/о -0.9 -2.7 88 -5 -5 1017.6 924.9
21 18.09 В 1
{4}
н/о н/о +0.7 -3.7 72 -1 -1 1017.3 925.1
22 18.09 штиль 0
{3}
н/о н/о -2.8 -4.4 89 -4 -4 1018.7 925.3
23 18.09 В 1
{2}
н/о н/о -2.0 -4.1 86 -4 -4 1018.7 925.6
00 19.09 В 1
{4}
н/о н/о -2.4 -4.2 87 -5 -5 1019.4 926.0
01 19.09 СВ 1
{2}
н/о н/о -4.0 -4.7 95 -6 -6 1020.0 926.1
02 19.09 СВ 1
{2}
н/о н/о -5.1 -5.8 95 -8 -8 1020.7 926.3
03 19.09 СВ 1
{2}
н/о н/о -6.1 -7.1 93 -9 -9 1021.2 926.4
04 19.09 В 1
{2}
н/о н/о -5.7 -6.4 95 -8 -8 1021.2 926.5
05 19.09 СВ 1
{2}
н/о н/о -5.3 -5.7 97 -8 -8 1021.2 926.7
06 19.09 С 1
{2}
н/о н/о -4.3 -5.1 94 -7 -7 1020.8 926.7 -6.3 +3.0
07 19.09 штиль 0
{2}
н/о н/о -1.9 -2.6 95 -3 -3 1020.3 927.1
08 19.09 штиль 0
{1}
н/о н/о +0.7 -1.9 83 -0 -0 1019.8 927.4
09 19.09 штиль 0
{2}
н/о н/о +2.9 -0.2 80 +2 +2 1018.9 927.4
10 19.09 ЮЗ 1
{2}
н/о н/о +4.7 -0.9 67 +4 +4 1018.4 927.5
11 19.09 ЮЗ 1
{3}
н/о н/о +5.6 -2.5 56 +5 +5 1018.0 927.4
12 19.09 ЮЗ 2
{4}
н/о н/о +5.6 -1.7 59 +4 +4 1018.1 927.5
13 19.09 З 4
{7}
н/о н/о +5.2 -1.5 62 +2 +2 1017.7 927.0
14 19.09 З 3
{7}
н/о н/о +5.6 -2.4 56 +3 +3 1017.4 926.9
15 19.09 З 3
{6}
н/о н/о +5.0 -1.5 63 +2 +2 1017.2 926.5
16 19.09 н/о
17 19.09 ЮЗ 2
{4}
н/о н/о +3.5 +0.3 80 +1 +1 1017.6 926.4 0.1
18 19.09 Ю 2
{7}
н/о н/о +3.3 +1.0 85 0 0 1017.3 926.1 -4.2 +6.0 0.2
19 19.09 Ю 2
{5}
н/о н/о +3.5 +0.9 83 +1 +1 1017.1 925.9
20 19.09 ЮВ 1
{4}
н/о н/о +3.6 +1.3 85 +2 +2 1016.8 925.7
21 19.09 В 1
{3}
н/о н/о +3.7 +1.7 87 +2 +2 1016.8 925.7
22 19.09 ЮЗ 1
{3}
н/о н/о +3.9 +1.9 87 +2 +2 1016.3 925.4
23 19.09 СВ 1
{2}
н/о н/о +4.1 +2.4 89 +3 +3 1016.2 925.3
00 20.09 ЮВ 2
{5}
н/о н/о +5.3 +3.5 88 +3 +3 1015.4 925.0
01 20.09 Ю 3
{4}
н/о н/о +5.7 +3.8 88 +2 +2 1015.0 924.7
02 20.09 Ю 3
{5}
н/о н/о +6.1 +4.0 86 +3 +3 1015.0 924.9
03 20.09 Ю 3
{7}
н/о н/о +6.0 +4.3 89 +3 +3 1014.7 924.6
04 20.09 Ю 3
{6}
н/о н/о +6.3 +4.6 89 +3 +3 1014.8 924.7
05 20.09 Ю 3
{6}
н/о н/о +6.6 +4.8 88 +3 +3 1014.2 924.3
06 20.09 Ю 2
{7}
н/о н/о +7.0 +4.9 86 +5 +5 1014.3 924.5 +3.3 +7.0
07 20.09 ЮЗ 3
{5}
н/о н/о +7.6 +5.1 84 +5 +5 1014.0 924.4
08 20.09 Ю 2
{6}
н/о н/о +8.2 +5.4 82 +6 +6 1014.2 924.8
09 20.09 З 2
{6}
н/о н/о +8.8 +5.5 80 +7 +7 1014.2 925.0
10 20.09 З 5
{8}
н/о н/о +10.3 +5.9 74 +7 +7 1013.3 924.7
11 20.09 СЗ 5
{8}
н/о н/о +9.9 +5.5 74 +7 +7 1013.1 924.3
12 20.09 н/о
13 20.09 З 3
{9}
н/о н/о +9.9 +5.9 76 +8 +8 1013.0 924.3
14 20.09 З 5
{9}
н/о н/о +9.7 +5.7 76 +7 +7 1020.8 924.7
15 20.09 З 2
{9}
н/о н/о +9.2 +5.9 80 +8 +8 1021.2 924.9
16 20.09 ЮЗ 2
{6}
н/о н/о +9.0 +5.9 81 +7 +7 1021.3 924.9
17 20.09 ЮЗ 3
{5}
н/о н/о +8.7 +5.9 83 +6 +6 1021.5 925.0
18 20.09 Ю 3
{9}
н/о н/о +7.9 +5.7 86 +5 +5 1021.9 925.1 +7.1 +11.4
19 20.09 н/о
20 20.09 Ю 1
{4}
н/о н/о +6.0 +4.2 88 +5 +5 1022.6 925.1
21 20.09 В 1
{2}
н/о н/о +1.4 +0.7 95 -1 -1 1024.6 925.2
22 20.09 СВ 1
{3}
н/о н/о +1.8 +1.4 97 -0 -0 1024.5 925.3
23 20.09 СВ 2
{3}
н/о н/о +1.1 +0.8 98 -3 -3 1024.5 925.0
00 21.09 СВ 2
{5}
н/о н/о +0.5 0.0 96 -3 -3 1024.5 924.8
01 21.09 СВ 2
{3}
н/о н/о +0.3 -0.1 97 -4 -4 1024.3 924.5
02 21.09 СВ 1
{3}
н/о н/о -0.5 -1.0 96 -3 -3 1024.3 924.3
03 21.09 СВ 2
{3}
н/о н/о -0.3 -0.6 98 -4 -4 1024.4 924.5
04 21.09 СВ 2
{3}
н/о н/о -1.0 -1.5 96 -5 -5 1024.7 924.4
05 21.09 СВ 2
{3}
н/о н/о -0.3 -0.6 98 -4 -4 1024.3 924.4
06 21.09 СВ 1
{3}
н/о н/о -0.9 -1.2 98 -3 -3 1024.7 924.5 -1.5 +8.1
07 21.09 В 1
{3}
н/о н/о +4.8 +3.1 89 +3 +3 1022.4 924.5
08 21.09 штиль 0
{1}
н/о н/о +10.1 +6.3 77 +10 +10 1020.4 924.5
09 21.09 ЮЗ 1
{1}
н/о н/о +14.2 +4.4 52 +15 +15 1018.8 924.5
10 21.09 ЮЗ 2
{3}
н/о н/о +16.0 +4.5 46 +16 +16 1017.8 924.2
11 21.09 Ю 2
{3}
н/о н/о +18.6 +3.6 37 +19 +19 1016.6 924.0
12 21.09 ЮЗ 1
{3}
н/о н/о +20.3 +3.7 33 +22 +22 комфорт 1015.7 923.7
13 21.09 ЮЗ 3
{6}
н/о н/о +20.2 +2.8 32 +21 +21 комфорт 1015.4 923.4
14 21.09 СЗ 2
{6}
н/о н/о +19.7 +3.5 34 +21 +21 комфорт 1015.2 923.0
15 21.09 СЗ 2
{4}
н/о н/о +19.7 +3.1 33 +21 +21 комфорт 1014.8 922.6
16 21.09 ЮЗ 2
{4}
н/о н/о +18.6 +5.1 41 +19 +19 1015.0 922.5
17 21.09 СЗ 1
{3}
н/о н/о +15.0 +5.0 51 +16 +16 1016.1 922.2
18 21.09 СВ 1
{6}
н/о н/о +6.6 +4.0 83 +6 +6 1019.4 922.3 -0.9 +20.5
19 21.09 СВ 1
{2}
н/о н/о +3.3 +2.7 96 +2 +2 1020.8 922.5
20 21.09 СВ 1
{2}
н/о н/о +2.2 +1.2 93 0 0 1021.3 922.5
21 21.09 н/о
22 21.09 СВ 1
{2}
н/о н/о +0.3 -0.3 96 -2 -2 1021.7 922.2
23 21.09 СВ 1
{2}
н/о н/о -0.6 -1.0 97 -3 -3 1021.7 921.9
00 22.09 СВ 2
{2}
н/о н/о -0.2 -0.5 98 -4 -4 1021.3 921.7
01 22.09 СВ 1
{2}
н/о н/о -0.5 -0.8 98 -3 -3 1021.2 921.5
02 22.09 СВ 1
{2}
н/о н/о -1.5 -1.8 98 -4 -4 1021.2 921.1
03 22.09 С 1
{2}
н/о н/о -1.2 -1.5 98 -4 -4 1020.8 920.8
04 22.09 СВ 1
{2}
н/о н/о -1.2 -1.4 99 -4 -4 1020.5 920.6
05 22.09 н/о
06 22.09 СВ 1
{2}
н/о н/о -2.1 -2.5 97 -5 -5 1020.5 920.2 -2.5 +6.7
07 22.09 н/о
08 22.09 С 1
{2}
н/о н/о +8.1 +5.1 81 +7 +7 1016.1 919.9
09 22.09 штиль 0
{1}
н/о н/о +13.6 +5.4 58 +13 +13 1013.6 919.5
10 22.09 З 1
{2}
н/о н/о +16.5 +3.4 42 +17 +17 1012.1 919.1
11 22.09 З 1
{2}
н/о н/о +18.7 +4.2 38 +20 +20 1010.9 918.8
12 22.09 ЮЗ 1
{4}
н/о н/о +20.3 +4.6 36 +22 +22 комфорт 1010.0 918.5
13 22.09 Ю 3
{6}
н/о н/о +20.9 +3.6 32 +22 +22 комфорт 1009.5 918.3
14 22.09 ЮВ 3
{6}
н/о н/о +19.9 +4.5 36 +21 +21 комфорт 1009.8 918.2
15 22.09 ЮВ 4
{7}
н/о н/о +19.1 +5.1 40 +19 +19 1010.0 918.1
16 22.09 ЮВ 2
{6}
н/о н/о +16.8 +5.4 47 +17 +17 1011.2 918.4
17 22.09 ЮЗ 2
{5}
н/о н/о +15.0 +5.7 54 +15 +15 1012.1 918.7
18 22.09 ЮВ 1
{7}
н/о н/о +11.8 +4.7 62 +12 +12 1013.9 919.2 -2.0 +21.1
19 22.09 С 3
{5}
н/о н/о +9.2 +6.2 81 +7 +7 1015.4 919.7
20 22.09 В 2
{5}
н/о н/о +8.0 +5.6 85 +6 +6 1016.1 919.9
21 22.09 ЮВ 1
{7}
н/о н/о +8.8 +5.4 79 +8 +8 1016.4 920.4
22 22.09 ЮВ 3
{6}
н/о н/о +8.8 +5.8 81 +6 +6 1017.0 920.9
23 22.09 В 1
{3}
н/о н/о +8.4 +6.0 85 +8 +8 1017.5 921.2
00 23.09 С 1
{7}
н/о н/о +7.9 +5.9 87 +7 +7 1017.9 921.5
01 23.09 ЮВ 2
{5}
н/о н/о +9.1 +6.5 84 +7 +7 1017.4 921.4
02 23.09 В 1
{4}
н/о н/о +8.7 +5.6 81 +8 +8 1017.3 921.2
03 23.09 ЮВ 2
{6}
н/о н/о +8.2 +5.4 82 +6 +6 1017.7 921.4
04 23.09 ЮВ 2
{5}
н/о н/о +8.0 +5.4 84 +6 +6 1017.7 921.3
05 23.09 ЮЗ 1
{5}
н/о н/о +7.8 +5.4 85 +7 +7 1017.8 921.4
06 23.09 В 2
{6}
н/о н/о +7.9 +5.1 82 +6 +6 1018.1 921.6 +6.3 +12.5
07 23.09 В 2
{4}
н/о н/о +8.6 +5.1 79 +7 +7 1017.7 921.5
08 23.09 н/о
09 23.09 Ю 3
{7}
н/о н/о +9.7 +5.1 73 +8 +8 1017.4 921.6
10 23.09 ЮВ 3
{7}
н/о н/о +9.9 +4.8 71 +8 +8 1017.2 921.5
11 23.09 ЮВ 3
{8}
н/о н/о +10.2 +4.5 68 +8 +8 1016.8 921.3
12 23.09 Ю 4
{8}
н/о н/о +10.0 +4.4 68 +8 +8 1016.8 921.2
13 23.09 ЮВ 4
{7}
н/о н/о +9.9 +4.6 70 +7 +7 1016.8 921.2
14 23.09 ЮВ 4
{7}
н/о н/о +9.7 +4.7 71 +7 +7 1016.7 921.0
15 23.09 Ю 2
{6}
н/о н/о +9.6 +4.7 71 +8 +8 1016.4 920.6
16 23.09 ЮВ 3
{5}
н/о н/о +9.4 +5.1 74 +7 +7 1016.1 920.4
17 23.09 ЮВ 2
{5}
н/о н/о +8.8 +4.9 76 +7 +7 1016.2 920.3

 

Местоположение метеостанции Ховден (Норвегия): широта 59.58 долгота 7.38 высота над уровнем моря 841 м.

В архиве по умолчанию представлена погода в Ховдене за последнюю неделю. Архивные данные за месяц целиком и за предыдущие месяцы, начиная с января 2011 года, Вы можете получить, выбрав интересующий диапазон дат из раскрывающегося списка и нажав кнопку "Ввод!".


*Определитесь, кто Вы:
робот инопланетянин человек

Внимание! Время в таблицах - всемирное. Для получения местного времени необходимо прибавить поправку, которая равна 1 ч.

Смотрите также архив погоды в соседних городах и на ближайших метеорологических станциях:

Погода в Вагсли (Норвегия) (21 км)
Погода в Хаукелисетере (Норвегия) (28 км)
Погода в Бляшу (Норвегия) (40 км)
Погода в Валле (Норвегия) (43 км)
Погода в Хойдалсмо (Норвегия) (47 км)
Погода в Мосстранде (Норвегия) (53 км)
Погода в Сауде (Норвегия) (58 км)
Погода в Сандхау (Норвегия) (67 км)
Погода на Гаустатоппене (Норвегия) (78 км)
Погода в Сирдал-Синнесе (Норвегия) (78 км)

Пояснения к столбцам:

Ветер - указаны скорость ветра в м/с - средняя за 10 мин, порывы в срок и между сроками (в фигурных скобках) и направление, откуда дует ветер: С - северный, СВ - северо-восточный, В - восточный, ЮВ - юго-восточный, Ю - южный, ЮЗ - юго-западный, З - западный, СЗ - северо-западный.
Видимость - горизонтальная дальность видимости в метрах или километрах. При видимости от 1 до 10 км при отсутствии осадков обычно наблюдается дымка, при ухудшении видимости до 1 км и менее - туман. В сухую погоду видимость может ухудшаться дымом, пылью или мглою.
Явления - указаны атмосферные явления, наблюдавшиеся в срок или в последний час перед сроком; фигурными скобками обозначены явления, наблюдавшиеся между сроками (за 1-3 часа до срока); квадратными скобками обозначены град или гололедные отложения с указанием их диаметра в мм.
Облачность - указаны через наклонную черту общая и нижняя облачность в баллах и высота нижней границы облаков в метрах; квадратными скобками обозначены формы облаков: Ci - перистые, Cs - перисто-слоистые, Cc - перисто-кучевые, Ac - высококучевые, As - высокослоистые, Sc - слоисто-кучевые, Ns - слоисто-дождевые, Cu - кучевые, Cb - кучево-дождевые. Подробнее классификацию облаков см. в Атласе облаков (PDF).
T - Температура воздуха - температура, измеренная на высоте 2 м над землей.
Td - Температура точки росы - температура, при понижении до которой содержащийся в воздухе водяной пар достигнет насыщения.
f - Относительная влажность воздуха - влажноcть воздуха, измеренная на высоте 2 м над землей.
Te - Эффективная температура - температура, которую ощущает одетый по сезону человек в тени. Характеристика душности погоды. При расчете учитывается влияние влажности воздуха и скорости ветра на теплоощущения человека.
Tes - Эффективная температура на солнце - температура, которую ощущает человек, с поправкой на солнечный нагрев. Характеристика знойности погоды. Зависит от высоты солнца над горизонтом, облачности и скорости ветра. Ночью, в пасмурную погоду, а также при ветре 12 м/с и более поправка равна нулю.
P - Атмосферное давление - приведенное к уровню моря атмосферное давление.
Po - Атмосферное давление - измеренное на уровне метеостанции атмосферное давление.
Tmin - Минимальная температура - минимум температуры воздуха на высоте 2 м над землей.
Tmax - Максимальная температура - максимум температуры воздуха на высоте 2 м над землей.
R - Количество осадков - Количество выпавших осадков за период времени, мм. При наведении курсора мыши на число - период времени, за который выпало указанное количество осадков.
R24 - Количество осадков - Количество выпавших осадков за 24 часа, мм.
S - Снежный покров - Высота снежного покрова, см. При наведении курсора мыши на число - состояние снежного покрова и степень покрытия местности в баллах.